Regional Weather Roundup
Issued by NWS

Home | Current Version | Previous Version | Graphics & Text | Print | Product List | Glossary On
Versions: 1 2 3 4 5 6 7 8 9 10 11 12 13 14 15 16 17 18 19 20 21 22 23 24 25 26 27 28 29 30 31 32 33 34 35 36 37 38 39 40 41 42 43 44 45 46 47 48 49 50
000
ASUS45 KABQ 231001
RWRNM
NEW MEXICO REGIONAL WEATHER ROUNDUP
NATIONAL WEATHER SERVICE ALBUQUERQUE NM
300 AM MST MON JAN 23 2017

NOTE: "FAIR" MEANS FEW OR NO CLOUDS BELOW 12,000 FEET AGL WITH NO
       SIGNIFICANT WEATHER OR OBSTRUCTIONS TO VISION.

      THIS PRODUCT IS RELEASED AS TWO VERSIONS.  ONE VERSION NEAR
      THE TOP OF THE HOUR CONTAINING PRELIMINARY DATA FROM ALBUQUERQUE
      AND OTHER STATIONS.  A FINAL VERSION WITH ADDITIONAL DATA IS
      ISSUED ABOUT 10 MINUTES AFTER THE HOUR.

NMZ501-503-504-510>518-231100-
NORTHWEST PLATEAU/NORTHCENTRAL MOUNTAINS

CITY           SKY/WX    TMP DP  RH WIND       PRES   REMARKS
FARMINGTON     CLOUDY    29  26  89 E16       29.97F WCI  17
LOS ALAMOS     MOCLDY    28  26  91 CALM      30.00F
SANTA FE       CLOUDY    34  25  69 CALM      30.02F
TAOS           CLOUDY    28  18  64 S5        30.00F WCI  23
ANGEL FIRE     MOCLDY    26  21  83 SW12      29.98F WCI  15

$$
NMZ402-403-502-505>509-231100-
WESTCENTRAL MOUNTAINS/SOUTHWEST MOUNTAINS

CITY           SKY/WX    TMP DP  RH WIND       PRES   REMARKS
GALLUP         FAIR      35  22  58 SW8       29.98F WCI  29
GRANTS         FAIR      40  20  45 W13G24    30.01F WCI  33
SILVER CITY    FAIR      32  25  76 N3        30.09F

$$
NMZ407-409-411-412-231100-
SOUTHERN DESERTS

CITY           SKY/WX    TMP DP  RH WIND       PRES   REMARKS
DEMING         FAIR      32  28  85 SW6       30.09F WCI  26
LAS CRUCES     FAIR      38  28  69 W7        30.09S WCI  32
ALAMOGORDO     FAIR      36  27  69 SE8       30.07F WCI  29
T OR C         FAIR      35  29  78 CALM      30.03F

$$
NMZ519>523-231100-
CENTRAL VALLEYS/CENTRAL HIGHLANDS

CITY           SKY/WX    TMP DP  RH WIND       PRES   REMARKS
ALBUQUERQUE    MOCLDY    37  30  75 CALM      30.04F
DOUBLE EAGLE   MOCLDY    32  30  94 NW3       30.04F
MORIARTY ARPT  FAIR      28  24  84 CALM      30.04F
CLINES CORNERS FAIR      24  22  91 W9        30.02F WCI  14
BELEN          FAIR      32  30  93 NW3       30.04F
SOCORRO        FAIR      32  27  81 CALM      30.04F

$$
NMZ524>526-539-540-231100-
SOUTHCENTRAL MOUNTAINS

CITY           SKY/WX    TMP DP  RH WIND       PRES   REMARKS
RUIDOSO        NOT AVBL

$$
NMZ527>531-231100-
NORTHEAST HIGHLANDS/NORTHEAST PLAINS

CITY           SKY/WX    TMP DP  RH WIND       PRES   REMARKS
LAS VEGAS      FAIR      39  27  62 W22G33    29.90R WCI  29
RATON          FAIR      28  16  60 NE7       29.82F WCI  21
CLAYTON        FAIR      26  23  88 W5        29.86S WCI  20

$$
NMZ532>537-231100-
EASTCENTRAL PLAINS

CITY           SKY/WX    TMP DP  RH WIND       PRES   REMARKS
TUCUMCARI      FAIR      44  27  51 SW24      29.85F
CANNON AFB     FAIR      36  22  57 W9        29.92F WCI  29
CLOVIS AIRPORT FAIR      37  21  52 W15       29.92F WCI  28

$$
NMZ028-029-538-231100-
SOUTHEAST PLAINS

CITY           SKY/WX    TMP DP  RH WIND       PRES   REMARKS
ROSWELL        FAIR      30  25  81 S7        29.95F WCI  23
ARTESIA        FAIR      37  27  65 S5        29.97F WCI  34
CARLSBAD       FAIR      40  25  55 SE7       29.98F


$$



USA.gov is the U.S. government's official web portal to all federal, state and local government web resources and services.